Terminal Aerodrome Forecast
Issued by NWS

Current Version | Previous Version | Graphics & Text | Print | Product List | Glossary On
Versions: 1 2 3 4 5 6 7 8 9 10 11 12 13 14 15 16 17 18 19 20 21 22 23 24 25 26 27 28 29 30 31 32 33 34 35 36 37
000
FTUS41 KRNK 211725
TAFLWB
TAF
KLWB 211725Z 2118/2218 13003KT P6SM SCT030
     FM220500 12003KT P6SM OVC040
     FM221000 12004KT 6SM -FZRAPL OVC025
     FM221300 11005KT 5SM -RA BR OVC020=

USA.gov is the U.S. government's official web portal to all federal, state and local government web resources and services.